FW8536 Weather Reports


Display with metric or nautical units.
time (UTC)temp
F
wind
direction
speed
MPH
gust
MPH
rain 1hr
in
rain 24hr
in
rain mn
in
humidity
%
barometer
mb
20260905175051 82 12 6.0 10.0 0.00 0.00 0.00 63 996.2
20260905174049 81 74 2.0 8.0 0.00 0.00 0.00 65 996.3
20260905173548 80 360 4.0 9.0 0.00 0.00 0.00 66 996.4
20260905173048 80 360 5.0 9.0 0.00 0.00 0.00 66 996.4
20260905172548 79 337 4.0 6.0 0.00 0.00 0.00 68 996.5
20260905172048 79 360 2.0 6.0 0.00 0.00 0.00 68 996.4
20260905171600 79 360 2.0 6.0 0.00 0.00 0.00 67 996.5
20260905171048 79 46 0.0 7.0 0.00 0.00 0.00 68 996.5
20260905170548 79 54 4.0 7.0 0.00 0.00 0.00 69 996.5
20260905170047 78 78 2.0 9.0 0.00 0.00 0.00 69 996.7
20260905165545 79 360 6.0 11.0 0.00 0.00 0.00 68 996.6
20260905165045 78 360 5.0 13.0 0.00 0.00 0.00 69 996.4
20260905164043 78 117 7.0 13.0 0.00 0.00 0.00 69 996.3
20260905163543 78 74 7.0 12.0 0.00 0.00 0.00 70 996.1
20260905163051 78 360 8.0 12.0 0.00 0.00 0.00 70 995.9
20260905162543 78 51 8.0 12.0 0.00 0.00 0.00 70 996.0
20260905162042 77 360 6.0 11.0 0.00 0.00 0.00 71 995.9
20260905161541 77 360 3.0 8.0 0.00 0.00 0.00 72 996.0
20260905161041 76 360 4.0 12.0 0.00 0.00 0.00 72 995.9
20260905160540 76 360 7.0 10.0 0.00 0.00 0.00 74 995.9
20260905160041 75 360 2.0 10.0 0.00 0.00 0.00 74 995.8
20260905155541 75 94 6.0 10.0 0.00 0.00 0.00 75 995.7
20260905155041 74 96 2.0 9.0 0.00 0.00 0.00 76 995.7
20260905154044 74 75 4.0 9.0 0.00 0.00 0.00 76 995.9
20260905153540 73 87 4.0 10.0 0.00 0.00 0.00 77 995.8
20260905153040 73 76 7.0 10.0 0.00 0.00 0.00 77 995.9
20260905152541 73 87 6.0 9.0 0.00 0.00 0.00 77 995.8
20260905152040 73 78 5.0 9.0 0.00 0.00 0.00 78 996.0
20260905151540 72 54 5.0 10.0 0.00 0.00 0.00 78 996.0
20260905151039 72 360 5.0 10.0 0.00 0.00 0.00 79 995.9
20260905150539 72 44 4.0 10.0 0.00 0.00 0.00 79 995.8
20260905150045 72 360 7.0 10.0 0.00 0.00 0.00 79 995.9
20260905145542 71 40 6.0 11.0 0.00 0.00 0.00 80 995.9
20260905145039 70 48 7.0 12.0 0.00 0.00 0.00 81 996.0
20260905144038 70 360 7.0 12.0 0.00 0.00 0.00 82 995.7
20260905143538 70 360 7.0 11.0 0.00 0.00 0.00 82 995.6
20260905143042 69 360 7.0 10.0 0.00 0.00 0.00 83 995.7
20260905142538 69 26 6.0 10.0 0.00 0.00 0.00 83 995.9
20260905142038 69 40 6.0 10.0 0.00 0.00 0.00 84 996.0
20260905141538 68 360 6.0 10.0 0.00 0.00 0.00 84 996.0
20260905141037 68 49 5.0 10.0 0.00 0.00 0.00 85 995.9
20260905140538 68 30 7.0 11.0 0.00 0.00 0.00 85 996.1
20260905140038 68 25 7.0 10.0 0.00 0.00 0.00 86 995.9
20260905135538 67 17 7.0 10.0 0.00 0.00 0.00 86 996.0
20260905135037 66 5 7.0 11.0 0.00 0.00 0.00 87 995.9
20260905134038 66 360 8.0 11.0 0.00 0.00 0.00 88 995.9
20260905133537 66 18 8.0 11.0 0.00 0.00 0.00 89 995.8
20260905133036 65 360 7.0 10.0 0.00 0.00 0.00 90 995.9
20260905132536 65 360 6.0 10.0 0.00 0.00 0.00 91 995.9
20260905132036 64 360 7.0 10.0 0.00 0.00 0.00 92 995.8
20260905131538 63 360 6.0 10.0 0.00 0.00 0.00 92 995.4
20260905131035 63 360 7.0 10.0 0.00 0.00 0.00 92 995.3
20260905130537 62 360 6.0 11.0 0.00 0.00 0.00 91 995.1
20260905130033 62 360 8.0 11.0 0.00 0.00 0.00 91 994.9
20260905125532 62 360 8.0 11.0 0.00 0.00 0.00 92 994.8
20260905125032 62 360 8.0 12.0 0.00 0.00 0.00 91 994.7
20260905124033 62 360 8.0 13.0 0.00 0.00 0.00 91 994.7
20260905123530 62 360 10.0 13.0 0.00 0.00 0.00 91 994.5
20260905123038 62 360 9.0 12.0 0.00 0.00 0.00 91 994.4
20260905122530 62 360 9.0 13.0 0.00 0.00 0.00 92 994.4
20260905122033 62 360 10.0 13.0 0.00 0.00 0.00 92 994.2
20260905121536 62 360 9.0 12.0 0.00 0.00 0.00 92 994.2
20260905121027 62 360 8.0 12.0 0.00 0.00 0.00 91 994.2
20260905120527 62 360 9.0 11.0 0.00 0.00 0.00 91 994.0
20260905120027 62 360 8.0 10.0 0.00 0.00 0.00 91 994.0
20260905115524 62 360 7.0 10.0 0.00 0.00 0.00 90 993.8
20260905115022 63 360 8.0 10.0 0.00 0.00 0.00 89 993.7
20260905114026 64 360 6.0 9.0 0.00 0.00 0.00 89 993.6
20260905113522 64 360 7.0 9.0 0.00 0.00 0.00 89 993.5
20260905113024 64 360 6.0 8.0 0.00 0.00 0.00 89 993.6
20260905112521 64 360 6.0 8.0 0.00 0.00 0.00 89 993.5
20260905112025 64 360 7.0 8.0 0.00 0.00 0.00 88 993.4
20260905111521 64 360 6.0 8.0 0.00 0.00 0.00 87 993.5
20260905111018 64 360 6.0 8.0 0.00 0.00 0.00 88 993.4
20260905110519 65 360 6.0 8.0 0.00 0.00 0.00 88 993.4
20260905110017 65 360 6.0 7.0 0.00 0.00 0.00 88 993.4
20260905105516 65 360 6.0 7.0 0.00 0.00 0.00 88 993.3
20260905105017 65 360 5.0 8.0 0.00 0.00 0.00 88 993.4
20260905104015 65 360 6.0 9.0 0.00 0.00 0.00 87 993.3
20260905103515 65 360 7.0 9.0 0.00 0.00 0.00 87 993.1
20260905103015 65 360 7.0 9.0 0.00 0.00 0.00 87 993.1
20260905102516 65 360 7.0 8.0 0.00 0.00 0.00 86 993.0
20260905102013 65 360 7.0 8.0 0.00 0.00 0.00 87 992.8
20260905101513 65 360 5.0 7.0 0.00 0.00 0.00 87 993.0
20260905101012 65 360 4.0 8.0 0.00 0.00 0.00 86 992.8
20260905100511 66 360 7.0 8.0 0.00 0.00 0.00 85 992.8
20260905100011 66 360 6.0 7.0 0.00 0.00 0.00 85 992.6
20260905095509 66 360 5.0 7.0 0.00 0.00 0.00 85 992.7
20260905095012 66 360 5.0 7.0 0.00 0.00 0.00 84 992.5
20260905094008 67 360 5.0 7.0 0.00 0.00 0.00 84 992.4
20260905093509 67 360 5.0 7.0 0.00 0.00 0.00 84 992.3
20260905093007 67 360 5.0 7.0 0.00 0.00 0.00 84 992.6
20260905092510 67 360 5.0 7.0 0.00 0.00 0.00 83 992.4
20260905092008 68 360 5.0 8.0 0.00 0.00 0.00 82 992.4
20260905091505 68 360 6.0 8.0 0.00 0.00 0.00 82 992.4
20260905091005 68 360 5.0 8.0 0.00 0.00 0.00 83 992.3
20260905090505 68 360 5.0 8.0 0.00 0.00 0.00 82 992.4
20260905090006 68 360 5.0 8.0 0.00 0.00 0.00 81 992.5
20260905085503 68 360 7.0 8.0 0.00 0.00 0.00 80 992.4
20260905085003 69 360 5.0 7.0 0.00 0.00 0.00 80 992.6
20260905084059 69 360 4.0 6.0 0.00 0.00 0.00 80 992.5
20260905083558 69 46 4.0 6.0 0.00 0.00 0.00 79 992.5
20260905083057 70 48 4.0 6.0 0.00 0.00 0.00 78 992.5
20260905082557 70 53 3.0 6.0 0.00 0.00 0.00 78 992.5
20260905082100 70 360 3.0 6.0 0.00 0.00 0.00 77 992.4
20260905081557 70 360 4.0 6.0 0.00 0.00 0.00 77 992.3
20260905081055 70 360 4.0 6.0 0.00 0.00 0.00 76 992.3
20260905080557 71 360 4.0 6.0 0.00 0.00 0.00 75 992.3
20260905080106 71 360 4.0 7.0 0.00 0.00 0.00 75 992.3
20260905075551 71 360 4.0 7.0 0.00 0.00 0.00 74 992.4
20260905075051 71 360 4.0 8.0 0.00 0.00 0.00 74 992.3
20260905074600 71 360 5.0 8.0 0.00 0.00 0.00 74 992.4
20260905074050 71 360 5.0 8.0 0.00 0.00 0.00 73 992.3
20260905073550 72 360 5.0 8.0 0.00 0.00 0.00 72 992.3
20260905073105 72 360 5.0 8.0 0.00 0.00 0.00 71 992.3
20260905072548 72 360 4.0 7.0 0.00 0.00 0.00 71 992.4
20260905072050 72 360 4.0 6.0 0.00 0.00 0.00 70 992.4
20260905071047 73 360 4.0 6.0 0.00 0.00 0.00 69 992.5
20260905070545 73 360 4.0 6.0 0.00 0.00 0.00 68 992.5
20260905070044 73 360 4.0 5.0 0.00 0.00 0.00 67 992.5
20260905065544 74 44 3.0 6.0 0.00 0.00 0.00 67 992.6
20260905065043 74 44 4.0 6.0 0.00 0.00 0.00 67 992.6
20260905064543 74 360 4.0 6.0 0.00 0.00 0.00 66 992.6
20260905064044 74 360 5.0 6.0 0.00 0.00 0.00 65 992.6
20260905063542 75 72 4.0 6.0 0.00 0.00 0.00 64 992.7
20260905063040 75 74 4.0 6.0 0.00 0.00 0.00 63 992.7
20260905062541 76 74 2.0 6.0 0.00 0.00 0.00 63 992.6
20260905062040 76 74 3.0 5.0 0.00 0.00 0.00 63 992.6
20260905061043 75 360 2.0 5.0 0.00 0.00 0.00 64 992.6
20260905060540 75 76 2.0 5.0 0.00 0.00 0.00 64 992.6
20260905060058 75 72 4.0 6.0 0.00 0.00 0.00 63 992.6
20260905055540 75 73 4.0 6.0 0.00 0.00 0.00 63 992.6
20260905055038 76 86 3.0 5.0 0.00 0.00 0.00 62 992.5
20260905054553 76 84 4.0 6.0 0.00 0.00 0.00 61 992.5
20260905054038 76 86 3.0 6.0 0.00 0.00 0.00 62 992.4
20260905053539 76 86 2.0 5.0 0.00 0.00 0.00 62 992.4
20260905053037 76 88 1.0 5.0 0.00 0.00 0.00 63 992.2
20260905052538 76 89 3.0 6.0 0.00 0.00 0.00 63 992.3
20260905052037 76 88 4.0 6.0 0.00 0.00 0.00 63 992.3
20260905051037 76 94 3.0 6.0 0.00 0.00 0.00 63 992.2
20260905050537 76 91 3.0 7.0 0.00 0.00 0.00 62 992.3
20260905050037 76 90 5.0 8.0 0.00 0.00 0.00 62 992.3
20260905045539 76 99 5.0 8.0 0.00 0.00 0.00 63 992.2
20260905045037 76 89 5.0 7.0 0.00 0.00 0.00 63 992.2
20260905044536 76 93 4.0 9.0 0.00 0.00 0.00 63 992.3
20260905044035 76 360 6.0 9.0 0.00 0.00 0.00 62 992.2
20260905043533 77 96 5.0 9.0 0.00 0.00 0.00 61 992.2
20260905043032 77 95 6.0 9.0 0.00 0.00 0.00 60 992.3
20260905042530 78 360 7.0 13.0 0.00 0.00 0.00 59 992.3
20260905042029 79 108 9.0 13.0 0.00 0.00 0.00 58 992.2
20260905041028 80 104 11.0 20.0 0.00 0.00 0.00 56 992.1
20260905040528 80 101 9.0 20.0 0.00 0.00 0.00 56 992.0
20260905040028 80 108 11.0 16.0 0.00 0.00 0.00 56 991.8
20260905035530 81 97 10.0 18.0 0.00 0.00 0.00 55 991.9
20260905035026 81 89 12.0 18.0 0.00 0.00 0.00 55 991.9
20260905034526 81 108 12.0 18.0 0.00 0.00 0.00 55 991.9
20260905034024 82 86 12.0 19.0 0.00 0.00 0.00 55 991.8
20260905033522 82 84 12.0 19.0 0.00 0.00 0.00 54 991.8
20260905033023 82 86 12.0 19.0 0.00 0.00 0.00 54 991.7
20260905032523 82 78 13.0 19.0 0.00 0.00 0.00 54 991.8
20260905032022 83 73 11.0 22.0 0.00 0.00 0.00 53 991.7
20260905031021 83 360 9.0 16.0 0.00 0.00 0.00 53 991.7
20260905030520 83 360 10.0 19.0 0.00 0.00 0.00 53 991.8
20260905030021 83 360 10.0 19.0 0.00 0.00 0.00 53 991.7
20260905025519 83 46 8.0 13.0 0.00 0.00 0.00 53 991.6
20260905025018 83 44 7.0 11.0 0.00 0.00 0.00 53 991.6
20260905024537 83 69 7.0 14.0 0.00 0.00 0.00 52 991.9
20260905024016 84 48 8.0 15.0 0.00 0.00 0.00 52 991.7
20260905023514 84 73 7.0 15.0 0.00 0.00 0.00 51 991.8
20260905023019 84 81 8.0 13.0 0.00 0.00 0.00 51 991.9
20260905022513 85 69 7.0 13.0 0.00 0.00 0.00 50 991.7
20260905022012 85 74 6.0 16.0 0.00 0.00 0.00 50 991.7
20260905021012 85 360 8.0 16.0 0.00 0.00 0.00 49 991.6
20260905020512 85 75 9.0 15.0 0.00 0.00 0.00 49 991.6
20260905020011 85 53 9.0 15.0 0.00 0.00 0.00 48 991.7
20260905015512 86 57 5.0 9.0 0.00 0.00 0.00 47 991.5
20260905015008 86 75 6.0 10.0 0.00 0.00 0.00 46 991.4
20260905014508 87 79 6.0 11.0 0.00 0.00 0.00 46 991.4
20260905014007 87 360 6.0 13.0 0.00 0.00 0.00 45 991.2
20260905013505 87 85 10.0 13.0 0.00 0.00 0.00 45 991.1
20260905013006 88 81 8.0 12.0 0.00 0.00 0.00 45 991.2
20260905012503 88 360 7.0 12.0 0.00 0.00 0.00 45 991.2
20260905012002 90 360 7.0 14.0 0.00 0.00 0.00 43 991.0
20260905011005 90 38 9.0 14.0 0.00 0.00 0.00 42 991.1
20260905010502 90 43 8.0 14.0 0.00 0.00 0.00 41 991.2
20260905010001 91 50 6.0 10.0 0.00 0.00 0.00 39 991.0
20260905005502 91 360 7.0 10.0 0.00 0.00 0.00 38 991.0
20260905005001 92 360 6.0 11.0 0.00 0.00 0.00 37 990.9
20260905004502 92 360 7.0 11.0 0.00 0.00 0.00 37 991.0
20260905004001 92 360 7.0 11.0 0.00 0.00 0.00 36 990.9
20260905003501 92 49 6.0 11.0 0.00 0.00 0.00 35 990.8
20260905003006 93 360 5.0 13.0 0.00 0.00 0.00 35 990.9
20260905002500 93 78 7.0 16.0 0.00 0.00 0.00 35 990.9
20260905002100 93 78 10.0 16.0 0.00 0.00 0.00 35 991.0
20260905001100 93 79 10.0 18.0 0.00 0.00 0.00 35 991.1
20260905000601 93 87 11.0 18.0 0.00 0.00 0.00 34 991.0
20260905000059 94 90 10.0 16.0 0.00 0.00 0.00 33 991.0
20260904235558 94 76 9.0 13.0 0.00 0.00 0.00 33 990.9
20260904235058 94 360 7.0 12.0 0.00 0.00 0.00 32 990.9
20260904234554 94 360 8.0 12.0 0.00 0.00 0.00 32 990.8
20260904234054 94 360 6.0 11.0 0.00 0.00 0.00 32 990.9
20260904233551 94 82 7.0 15.0 0.00 0.00 0.00 31 990.9
20260904233050 94 83 7.0 15.0 0.00 0.00 0.00 31 990.8
20260904232549 94 76 8.0 15.0 0.00 0.00 0.00 31 990.9
20260904232047 94 360 8.0 13.0 0.00 0.00 0.00 31 991.0
20260904231046 94 360 9.0 15.0 0.00 0.00 0.00 31 991.0
20260904230548 94 74 11.0 15.0 0.00 0.00 0.00 31 991.0
20260904230147 94 103 8.0 14.0 0.00 0.00 0.00 31 991.1
20260904225543 94 80 7.0 12.0 0.00 0.00 0.00 31 991.1
20260904225041 94 360 7.0 18.0 0.00 0.00 0.00 31 991.2
20260904224544 94 115 11.0 18.0 0.00 0.00 0.00 31 991.2
20260904224039 94 117 7.0 14.0 0.00 0.00 0.00 30 991.1
20260904223537 94 95 8.0 14.0 0.00 0.00 0.00 31 991.2
20260904223046 94 115 7.0 16.0 0.00 0.00 0.00 31 991.3
20260904222537 94 360 10.0 20.0 0.00 0.00 0.00 32 991.4
20260904222037 93 360 13.0 20.0 0.00 0.00 0.00 34 991.6
20260904221032 93 85 11.0 20.0 0.00 0.00 0.00 37 991.6
20260904220530 92 106 11.0 20.0 0.00 0.00 0.00 37 991.6
20260904220034 92 101 11.0 20.0 0.00 0.00 0.00 37 991.8
20260904215528 93 104 12.0 20.0 0.00 0.00 0.00 37 991.9
20260904215031 92 80 13.0 19.0 0.00 0.00 0.00 36 991.9
20260904214525 92 133 13.0 21.0 0.00 0.00 0.00 36 991.8
20260904214024 92 89 14.0 21.0 0.00 0.00 0.00 35 991.9
20260904213522 92 360 14.0 20.0 0.00 0.00 0.00 34 992.0
20260904213022 92 108 12.0 21.0 0.00 0.00 0.00 36 992.0
20260904212520 91 88 13.0 21.0 0.00 0.00 0.00 35 992.0
20260904212017 91 107 12.0 24.0 0.00 0.00 0.00 36 992.0
20260904211019 90 360 16.0 23.0 0.00 0.00 0.00 38 992.2
20260904210517 91 105 15.0 21.0 0.00 0.00 0.00 38 992.3
20260904210016 91 107 14.0 20.0 0.00 0.00 0.00 38 992.3
20260904205514 91 360 12.0 19.0 0.00 0.00 0.00 37 992.2
20260904205012 90 125 13.0 20.0 0.00 0.00 0.00 39 992.3
20260904204511 90 139 14.0 20.0 0.00 0.00 0.00 39 992.4
20260904204011 90 119 14.0 22.0 0.00 0.00 0.00 38 992.4
20260904203511 89 88 11.0 24.0 0.00 0.00 0.00 41 992.4
20260904203010 89 105 13.0 21.0 0.00 0.00 0.00 40 992.4
20260904202506 89 93 14.0 22.0 0.00 0.00 0.00 41 992.4
20260904202006 89 360 16.0 22.0 0.00 0.00 0.00 40 992.4
20260904201006 88 111 17.0 23.0 0.00 0.00 0.00 43 992.4
20260904200506 88 88 17.0 26.0 0.00 0.00 0.00 44 992.4
20260904200020 88 98 20.0 26.0 0.00 0.00 0.00 43 992.5
20260904195508 88 101 16.0 23.0 0.00 0.00 0.00 44 992.6
20260904195005 87 105 16.0 23.0 0.00 0.00 0.00 43 992.6
20260904194504 88 117 16.0 23.0 0.00 0.00 0.00 44 992.7
20260904194006 87 90 16.0 24.0 0.00 0.00 0.00 45 992.6
20260904193504 87 88 13.0 24.0 0.00 0.00 0.00 48 992.7
20260904193009 86 106 18.0 24.0 0.00 0.00 0.00 47 992.8
20260904192502 86 101 16.0 27.0 0.00 0.00 0.00 48 992.9
20260904192001 85 360 18.0 24.0 0.00 0.00 0.00 48 992.9
20260904191002 85 113 16.0 23.0 0.00 0.00 0.00 50 993.0
20260904190601 85 96 17.0 23.0 0.00 0.00 0.00 49 993.2
20260904190101 85 360 14.0 24.0 0.00 0.00 0.00 50 993.3
20260904185600 85 113 16.0 24.0 0.00 0.00 0.00 50 993.4
20260904185059 84 83 15.0 23.0 0.00 0.00 0.00 50 993.5
20260904184605 83 90 17.0 25.0 0.00 0.00 0.00 51 993.5
20260904184501 84 111 16.0 26.0 0.00 0.00 0.00 51 993.6
20260904184100 84 103 18.0 26.0 0.00 0.00 0.00 51 993.8
20260904183600 83 123 15.0 24.0 0.00 0.00 0.00 52 993.8
20260904183101 83 106 18.0 24.0 0.00 0.00 0.00 51 993.8
20260904182558 83 113 16.0 25.0 0.00 0.00 0.00 51 993.8
20260904182058 83 117 17.0 26.0 0.00 0.00 0.00 51 993.9
20260904181058 82 108 20.0 28.0 0.00 0.00 0.00 52 994.1
20260904180601 82 119 18.0 25.0 0.00 0.00 0.00 51 994.0
20260904180058 83 126 18.0 28.0 0.00 0.00 0.00 51 994.2
20260904175558 82 98 19.0 28.0 0.00 0.00 0.00 52 994.2